TimeEDT,TemperatureF,Dew PointF,Humidity,Sea Level PressureIn,VisibilityMPH,Wind Direction,Wind SpeedMPH,Gust SpeedMPH,PrecipitationIn,Events,Conditions,WindDirDegrees,DateUTC
12:53 AM,53.1,43.0,69,29.42,10.0,East,6.9,-,0.00,,Overcast,100,2012-10-31 04:53:00
1:53 AM,50.0,48.0,93,29.42,10.0,West,6.9,-,0.00,Rain,Light Rain,270,2012-10-31 05:53:00
2:01 AM,48.9,46.9,93,29.42,10.0,West,5.8,-,0.00,Rain,Light Rain,270,2012-10-31 06:01:00
2:53 AM,48.0,46.0,93,29.43,10.0,WSW,9.2,-,0.01,Rain,Light Rain,250,2012-10-31 06:53:00
3:32 AM,45.0,44.1,97,29.43,7.0,West,5.8,-,0.02,Rain,Light Rain,260,2012-10-31 07:32:00
3:53 AM,45.0,43.0,93,29.43,6.0,NW,5.8,-,0.03,Rain,Light Rain,310,2012-10-31 07:53:00
4:07 AM,44.1,43.0,96,29.44,4.0,WNW,3.5,-,0.02,Rain,Rain,300,2012-10-31 08:07:00
4:43 AM,44.1,43.0,96,29.44,7.0,WNW,3.5,-,0.05,Rain,Light Rain,300,2012-10-31 08:43:00
4:53 AM,44.1,43.0,96,29.44,8.0,Calm,Calm,-,0.06,Rain,Light Rain,0,2012-10-31 08:53:00
5:08 AM,44.1,42.1,93,29.44,9.0,NNW,5.8,-,0.00,Rain,Light Rain,330,2012-10-31 09:08:00
5:15 AM,44.1,42.1,93,29.44,10.0,NW,4.6,-,0.00,Rain,Light Rain,320,2012-10-31 09:15:00
5:53 AM,44.1,42.1,93,29.46,10.0,Calm,Calm,-,0.00,,Overcast,0,2012-10-31 09:53:00
6:53 AM,44.1,42.1,93,29.46,10.0,North,3.5,-,0.02,Rain,Light Rain,350,2012-10-31 10:53:00
7:45 AM,44.1,41.0,89,29.46,10.0,Calm,Calm,-,0.01,Rain,Light Rain,0,2012-10-31 11:45:00
7:53 AM,44.1,41.0,89,29.46,10.0,Calm,Calm,-,0.01,Rain,Light Rain,0,2012-10-31 11:53:00
8:39 AM,44.1,42.1,93,29.47,10.0,NE,3.5,-,0.00,,Overcast,50,2012-10-31 12:39:00
8:53 AM,44.1,42.1,93,29.47,10.0,Calm,Calm,-,0.00,,Overcast,0,2012-10-31 12:53:00
9:08 AM,45.0,42.1,90,29.47,10.0,Calm,Calm,-,N/A,,Overcast,0,2012-10-31 13:08:00
9:53 AM,45.0,39.9,82,29.47,10.0,South,6.9,-,0.00,Rain,Light Rain,170,2012-10-31 13:53:00
10:53 AM,45.0,37.0,74,29.47,10.0,South,10.4,-,0.00,,Overcast,180,2012-10-31 14:53:00
11:38 AM,45.0,37.0,74,29.48,10.0,South,8.1,-,0.00,,Overcast,180,2012-10-31 15:38:00
11:53 AM,45.0,37.9,76,29.48,10.0,SSW,8.1,-,0.00,Rain,Light Rain,210,2012-10-31 15:53:00
12:53 PM,45.0,37.9,76,29.47,10.0,South,5.8,-,0.01,,Overcast,180,2012-10-31 16:53:00
1:53 PM,45.0,37.9,76,29.47,10.0,Calm,Calm,-,N/A,,Overcast,0,2012-10-31 17:53:00
2:53 PM,46.0,39.9,79,29.47,8.0,SE,5.8,-,0.00,Rain,Light Rain,130,2012-10-31 18:53:00
3:53 PM,46.0,37.9,73,29.47,10.0,South,3.5,-,0.00,,Overcast,180,2012-10-31 19:53:00
4:53 PM,45.0,36.0,71,29.49,10.0,SSW,6.9,-,0.00,,Overcast,210,2012-10-31 20:53:00
5:53 PM,44.1,37.0,76,29.50,10.0,South,9.2,-,0.00,Rain,Light Rain,180,2012-10-31 21:53:00
6:29 PM,44.1,37.9,79,29.50,10.0,South,3.5,-,0.00,,Overcast,170,2012-10-31 22:29:00
6:53 PM,44.1,37.0,76,29.50,10.0,South,4.6,-,0.00,Rain,Light Rain,180,2012-10-31 22:53:00
7:53 PM,43.0,37.9,82,29.51,10.0,SSE,5.8,-,0.00,,Overcast,160,2012-10-31 23:53:00
8:01 PM,43.0,37.9,82,29.50,10.0,SSE,5.8,-,N/A,,Overcast,160,2012-11-01 00:01:00
8:53 PM,43.0,37.0,80,29.51,10.0,SSE,5.8,-,N/A,,Overcast,150,2012-11-01 00:53:00
9:53 PM,43.0,37.0,80,29.51,10.0,SE,5.8,-,N/A,,Overcast,130,2012-11-01 01:53:00
10:23 PM,43.0,37.9,82,29.51,10.0,ESE,4.6,-,N/A,,Overcast,120,2012-11-01 02:23:00
10:53 PM,43.0,37.9,82,29.50,10.0,SE,5.8,-,0.00,Rain,Light Rain,140,2012-11-01 02:53:00
11:36 PM,43.0,37.9,82,29.50,10.0,SE,4.6,-,0.00,,Overcast,130,2012-11-01 03:36:00
11:53 PM,43.0,37.9,82,29.50,10.0,SSE,5.8,-,0.00,,Overcast,150,2012-11-01 03:53:00